Preview of NWS' New Version of Forecast
This preview is not operational and should not be used for support decisions.
Latest weather observations around

Kenai, Kenai Municipal Airport (PAEN)

Using English Units (Switch to International System of Units)
Date/ Time (AKST) Wind (mph) Vis. (mi) Weather Sky Cond. Temp (°F) Rel. Humidity Wind Chill (°F) Heat Index (°F) Pressure Precip. (in)
Air Dwpt 6 hour Altimeter (inHg) Sea level (inHg) 1 hr 3 hr 6 hr
Max Min
Feb 21 12:53 S 5 10 Clear CLR 25 19     78% 19   29.91 29.92      
Feb 21 11:53 S 6 10 Clear CLR 22 20     92% 14   29.89 29.9      
Feb 21 10:53 S 5 10 Clear CLR 20 20     100% 13   29.87 29.88      
Feb 21 09:53 S 6 10 Clear CLR 16 16     100% 7   29.85 29.85      
Feb 21 08:53 S 5 10 Clear CLR 14 11     87% 6   29.82 29.83     0
Feb 21 08:34 S 5 10 Clear CLR 17 17     100% 10   29.82        
Feb 21 08:26 SSE 6 2.5 Fog/Mist CLR 17 17     100% 9   29.81        
Feb 21 07:53 SSE 6 10 Clear CLR 16 15     96% 7   29.81 29.81      
Feb 21 07:29 S 5 10 Clear CLR 18 17     96% 11   29.79        
Feb 21 07:23 SW 6 1.75 Fog/Mist FEW120 16 15     96% 7   29.79        
Feb 21 06:53 Calm 10 Mostly Cloudy BKN120 21 20     96%     29.79 29.79      
Feb 21 05:53 Calm 10 Cloudy OVC037 22 20     92%     29.78 29.78   0  
Feb 21 04:53 N 8 9 Cloudy FEW042 OVC110 22 20     92% 13   29.76 29.77 0    
Feb 21 03:53 N 15 10 Unknown Precipitation FEW011 BKN038 OVC090 23 20     88% 10   29.76 29.77 0    
Feb 21 02:53   4 Light Snow and Fog/Mist OVC049 23 21     92%     29.76 29.77 0   0
Feb 21 01:53 N 16 2.5 Light Snow and Fog/Mist OVC033 23 21     92% 10   29.78 29.79 0    
Feb 21 01:41 N 17 2 Clear   23 21     92% 9   29.78        
Feb 21 01:02 N 15 2 Clear   23 20     88% 10   29.79        
Feb 21 00:53 N 15 1.75 Clear   23 20     88% 10   29.79 29.8      
Feb 21 00:28 N 16 1.5 Light Snow and Fog/Mist OVC028 23 20     88% 10   29.79   0    
Feb 21 00:21 NNE 17 1.75 Light Snow and Fog/Mist OVC030 23 20     88% 9   29.79   0    
Feb 20 23:53 N 16 3 Light Snow and Fog/Mist OVC040 23 21     92% 10   29.81 29.81 0 0  
Feb 20 23:43 N 15 2.5 Light Snow and Fog/Mist OVC036 23 21     92% 10   29.81   0    
Feb 20 23:24 N 16 2 Light Snow and Fog/Mist OVC024 23 21     92% 10   29.82   0    
Feb 20 23:10 N 16 1.75 Light Snow and Fog/Mist OVC026 23 21     92% 10   29.82   0    
Feb 20 22:53 N 15 1.75 Light Snow and Fog/Mist BKN034 OVC043 23 21     92% 10   29.83 29.84 0    
Feb 20 22:45 N 15 1.75 Light Snow and Fog/Mist BKN032 OVC043 23 21     92% 10   29.84   0    
Feb 20 22:34 N 15 2 Light Snow and Fog/Mist OVC026 23 21     92% 10   29.84   0    
Feb 20 21:53 NNE 14 1.25 Light Snow and Fog/Mist FEW009 OVC016 23 21     92% 11   29.85 29.86 0    
Feb 20 21:40 N 13 1.25 Light Snow and Fog/Mist SCT009 OVC016 23 21     92% 11   29.85   0    
Feb 20 21:33 N 13 1.5 Light Snow and Fog/Mist BKN009 OVC018 23 22     96% 11   29.86   0    
Feb 20 21:23 N 10 1.75 Light Snow and Fog/Mist SCT009 OVC022 23 22     96% 12   29.86   0    
Feb 20 21:12 N 11 2 Light Snow and Fog/Mist SCT009 OVC026 23 22     96% 12   29.87   0    
Feb 20 20:53 NNE 16 1.75 Light Snow and Fog/Mist BKN028 OVC036 23 22     96% 10   29.88 29.88 0   0
Feb 20 20:49 NNE 14 2 Light Snow and Fog/Mist BKN028 OVC036 23 21     93% 11   29.88   0    
Feb 20 20:29 NNE 15 1 Light Snow and Fog/Mist FEW011 OVC037 23 21     92% 10   29.89   0    
Feb 20 19:53 NNE 13 1 Light Snow and Fog/Mist FEW010 OVC025 23 21     92% 11   29.91 29.91 0    
Feb 20 18:53 NNE 11 0.75 Light Snow and Fog/Mist OVC023 22 21     96% 10   29.93 29.93 0    
Feb 20 18:10 NNE 11 0.75 Clear   22 21     96% 10   29.94   0    
Feb 20 17:53 NNE 11 0.75 Clear   22 20     92% 10   29.96 29.97 0 0  
Feb 20 17:18 NNE 10 0.75 Light Snow and Fog/Mist VV014 21 20     96% 10   29.97   0    
Feb 20 16:53 NNE 11 1 Light Snow and Fog/Mist VV015 21 20     96% 9   29.98 29.99 0    
Feb 20 15:53 NNE 13 1 Light Snow and Fog/Mist BKN028 OVC039 22 18     84% 10   30 30.01 0    
Feb 20 14:53 NNE 10 2 Light Snow and Fog/Mist BKN030 BKN036 OVC043 22 18     84% 11   30.02 30.03 0   0
Feb 20 14:50 NNE 10 3 Light Snow and Fog/Mist BKN028 BKN036 OVC055 21 18     86% 10   30.02   0    
Feb 20 13:53 NNE 10 10 Light Snow OVC055 21 17     84% 10   30.04 30.05 0    
Feb 20 12:53 NE 8 10 Cloudy BKN049 OVC060 20 16     84% 10   30.06 30.07      
Feb 20 11:53 NNE 7 10 Cloudy OVC050 19 15     84% 10   30.08 30.09      
Feb 20 10:53 NNE 9 10 Cloudy OVC049 18 15     88% 7   30.1 30.11      
Feb 20 09:53 NNE 3 10 Cloudy OVC055 18 14     84% 13   30.1 30.11      
Feb 20 08:53 NNE 5 10 Cloudy OVC065 18 14     84% 11   30.13 30.14      
Feb 20 07:53 NE 7 10 Cloudy OVC080 17 14     88% 8   30.12 30.13      
Feb 20 06:53 NE 7 10 Cloudy OVC095 17 15     92% 8   30.13 30.14      
Feb 20 05:53 NE 7 10 Cloudy OVC100 15 14     95% 5   30.15 30.16      
Feb 20 04:53 N 8 10 Cloudy OVC110 13 12     96% 2   30.15 30.16      
Feb 20 03:53 NE 3 10 Clear CLR 9 7     91% 3   30.18 30.18      
Feb 20 02:53 NNW 3 10 Clear CLR 7 5     91% 0   30.19 30.2      
Feb 20 01:53 N 5 10 Clear CLR 6 4     91% -3   30.19 30.2      
Feb 20 01:22 N 3 3 Fog/Mist CLR 8 6     91% 2   30.21        
Notice The following observation data may not be complete
Feb 20 01:12 N 6 1.75 Fog/Mist CLR   3      %     30.2        
Feb 20 00:53 Calm 6 Haze CLR 7        %     30.2 30.21      
Notice The following observation data may not be complete
Feb 19 23:53 NE 6 10 Clear CLR   2      %     30.19 30.19      
Notice The following observation data may not be complete
Feb 19 23:49 ENE 6 10 Clear CLR   3      %     30.19        
Notice The following observation data may not be complete
Feb 19 23:42 ENE 6 2 Fog/Mist FEW002   3      %     30.18        
Notice The following observation data may not be complete
Feb 19 23:30 NNE 5 1 Fog/Mist VV002   2      %     30.18        
Notice The following observation data may not be complete
Feb 19 23:14 NNE 3 1.25 Fog/Mist BKN001   4      %     30.19        
Notice The following observation data may not be complete
Feb 19 22:53 N 3 0.75 Fog/Mist VV001   7      %     30.21 30.22      
Feb 19 22:50 N 3 1 Fog/Mist VV001 9 7     92% 2   30.2        
Feb 19 22:47 N 5 1.75 Fog/Mist CLR 9 7     92% 0   30.19        
Feb 19 22:21 Calm 3 Fog/Mist CLR 9 8     96%     30.21        
Feb 19 22:11 Calm 1 Fog/Mist CLR 10 8     91%     30.2        
Feb 19 21:58 Calm 0.75 Fog/Mist CLR 10 8     91%     30.19        
Feb 19 21:53 Calm 2.5 Fog/Mist CLR 11 10     96%     30.19 30.2      
Feb 19 21:07 Calm 3 Fog/Mist CLR 13 12     96%     30.19        
Feb 19 21:00 Calm 1.25 Fog/Mist CLR 13 12     96%     30.18        
Feb 19 20:53 Calm 10 Clear CLR 13 11     92%     30.19 30.19      
Feb 19 19:53 NNW 5 10 Clear CLR 17 16     95% 10   30.18 30.19      
Feb 19 18:53 NNE 5 10 Clear   18 17     96% 11   30.17 30.18      
Feb 19 17:53 NNE 8 10 Clear CLR 23 21     92% 14   30.17 30.18      
Feb 19 16:53 NNE 7 10 Clear CLR 25 19     78% 17   30.17 30.18      
Feb 19 15:53 ENE 7 10 Clear CLR 28 23     81% 21   30.17 30.18      
Feb 19 14:53 NE 6 10 Clear CLR 28 24     85% 22   30.14 30.15      
Feb 19 13:53 ENE 3 10 Mostly Clear FEW002 31 31     100% 28   30.16 30.16      
Feb 19 13:19 NNE 5 10 Mostly Clear FEW002 28 28     100% 23   30.15        
Feb 19 13:08 NE 3 0.75 Fog/Mist VV003 28 27     96% 24   30.16        
Feb 19 13:04 Calm 1.25 Fog/Mist FEW003 30 29     96%     30.15        
Feb 19 13:00 Calm 0.25 Fog VV003 29 29     100%     30.15        
Feb 19 12:53 NE 3 7 Partly Cloudy SCT002 26 25     96% 22   30.15 30.16      
Feb 19 11:53 SSE 6 10 Partly Cloudy SCT002 SCT045 28 28     100% 22   30.12 30.12      
Feb 19 10:58 E 6 9 Mostly Clear FEW002 27 27     100% 20   30.09        
Feb 19 10:53 E 5 8 Clear CLR 27 27     100% 21   30.08 30.09      
Feb 19 10:44 E 7 3 Fog/Mist CLR 26 26     100% 18   30.07        
Feb 19 10:39 ENE 7 1.75 Fog/Mist CLR 25 25     100% 17   30.08        
Feb 19 09:53 ESE 6 10 Mostly Clear FEW035 24 24     100% 17   30.07 30.08      
Feb 19 08:53 SSW 3 10 Mostly Cloudy FEW042 BKN050 29 28     96% 25   30.04 30.04     0
Feb 19 07:53 3 10 Cloudy SCT042 BKN049 OVC075 25 24     96% 21   30.01 30.02      
Feb 19 07:20 3 5 Fog/Mist FEW001 BKN042 OVC050 25 24     96% 21   29.99        
Feb 19 07:04 E 3 5 Fog/Mist SCT014 BKN042 OVC050 24 22     91% 20   29.98        
Feb 19 07:02 ESE 3 1.5 Fog/Mist FEW005 BKN014 OVC050 23 22     96% 19   29.98        
Feb 19 06:53 Calm 5 Fog/Mist FEW003 BKN014 OVC044 23 22     96%     29.98 29.99      
Feb 19 06:38 Calm 3 Fog/Mist FEW003 BKN014 23 21     92%     29.98        
Feb 19 06:31 W 3 1.5 Fog/Mist FEW003 BKN014 22 20     92% 17   29.98        
Feb 19 06:28 Calm 1.75 Fog/Mist SCT014 BKN110 21 19     92%     29.97        
Feb 19 05:53 Calm 10 Cloudy OVC110 26 25     96%     29.94 29.95 0 0  
Feb 19 05:11 E 3 3 Light Snow and Fog/Mist OVC036 27 27     100% 23   29.92   0    
Feb 19 04:58 E 3 1.75 Light Snow and Fog/Mist OVC034 27 26     96% 23   29.91   0    
Feb 19 04:53 Calm 3 Light Snow and Fog/Mist FEW017 BKN036 OVC055 27 26     96%     29.91 29.92 0    
Feb 19 04:25 Calm 3 Fog/Mist SCT016 OVC085 27 27     100%     29.9        
Feb 19 04:17 Calm 1 Fog/Mist FEW002 BKN016 OVC090 27 27     100%     29.9        
Feb 19 04:09 Calm 0.5 Fog OVC017 27 26     96%     29.89        
Feb 19 03:53 N 3 1 Fog/Mist OVC017 27 26     96% 23   29.89 29.89      
Feb 19 03:50 N 3 0.75 Fog/Mist FEW002 OVC017 27 27     100% 23   29.88        
Feb 19 03:39 Calm 1 Clear   27 27     100%     29.88        
Feb 19 03:28 NE 3 0.5 Clear   27 27     100% 23   29.87        
Feb 19 02:53 Calm 0.25 Clear   27 27     100%     29.86 29.86      
Feb 19 01:53 S 3 0.25 Fog VV002 28 27     96% 24   29.82 29.83      
Feb 19 01:36 SSW 3 0.25 Fog VV002 28 27     96% 24   29.81        
Feb 19 01:19 Calm 0.75 Fog/Mist OVC003 29 28     96%     29.8        
Feb 19 01:08 SW 3 1.5 Fog/Mist OVC003 29 28     96% 25   29.8        
Feb 19 00:53 Calm 3 Fog/Mist OVC003 30 30     100%     29.8 29.8 0    
Feb 19 00:27 WSW 3 2 Fog/Mist OVC003 30 30     100% 27   29.79   0    
Feb 19 00:19 WSW 3 1.75 Light Snow and Fog/Mist BKN005 OVC016 30 30     100% 27   29.78   0    
Feb 19 00:13 W 3 2.5 Fog/Mist BKN004 BKN008 OVC016 32 31     96% 29   29.78   0    
Feb 18 23:53 SW 3 2 Light Snow and Fog/Mist OVC008 31 31     100% 28   29.77 29.77 0 0  
Feb 18 23:40 Calm 2.5 Fog/Mist OVC006 31 31     100%     29.76        
Feb 18 23:30 Calm 3 Fog/Mist OVC003 31 31     100%     29.75        
Feb 18 23:03 Calm 2.5 Fog/Mist OVC004 31 31     100%     29.74        
Feb 18 22:53 Calm 1.75 Fog/Mist OVC004 31 31     100%     29.74 29.74      
Feb 18 21:53 Calm 1.5 Fog/Mist OVC005 31 31     100%     29.71 29.72      
Feb 18 21:29 Calm 1.75 Fog/Mist OVC009 31 31     100%     29.71        
Feb 18 21:00 Calm 2.5 Fog/Mist FEW005 OVC010 31 30     96%     29.69        
Feb 18 20:53 Calm 3 Fog/Mist FEW005 OVC010 31 30     96%     29.69 29.7     0
Feb 18 20:49 Calm 3 Fog/Mist FEW006 OVC010 30 30     100%     29.69        
Feb 18 19:53 N 6 7 Cloudy BKN005 OVC010 31 30     96% 25   29.67 29.67      
Feb 18 18:53 N 9 4 Fog/Mist OVC007 31 30     96% 23   29.65 29.65      
Feb 18 17:53 N 8 5 Fog/Mist OVC006 31 30     96% 23   29.63 29.64 0 0  
Feb 18 17:05 N 9 3 Light Snow and Fog/Mist SCT006 OVC013 31 31     100% 23   29.62   0    
Feb 18 17:02 N 9 2 Light Snow and Fog/Mist SCT006 OVC013 31 31     100% 23   29.62   0    
Feb 18 16:53 N 9 1.25 Light Snow and Fog/Mist SCT006 OVC017 31 31     100% 23   29.62 29.62 0    
Feb 18 16:09 NNE 8 1 Light Snow and Fog/Mist BKN008 OVC012 32 31     96% 25   29.61   0    
Feb 18 15:53 N 10 1 Light Snow and Fog/Mist VV010 32 31     96% 24   29.61 29.62 0    
Feb 18 15:28 N 11 1 Light Snow and Fog/Mist FEW007 OVC012 32 31     96% 23   29.61   0    
Feb 18 15:18 N 10 0.75 Light Snow and Fog/Mist FEW006 OVC014 32 32     100% 24   29.61   0    
Feb 18 15:10 N 10 2 Light Snow and Fog/Mist FEW004 OVC014 32 32     100% 24   29.61   0    
Feb 18 14:53 N 9 5 Light Snow and Fog/Mist FEW004 BKN011 OVC016 33 33     100% 25   29.61 29.62 0   0
Feb 18 14:48 NNW 8 8 Light Rain FEW004 OVC011 34 34     100% 27   29.61   0    
Feb 18 14:13 N 3 8 Light Rain BKN011 OVC020 34 34     100% 31   29.62   0    
Feb 18 13:53 NNW 6 10 Cloudy FEW012 OVC023 35 34     96% 30   29.62 29.63 0    
Feb 18 12:53 NNE 5 10 Cloudy OVC026 34 33     96% 30   29.64 29.64 0    
May 14 13:53 SSW 14 10 Partly Cloudy SCT090 49 37     63% 44   29.88 29.89      
May 14 02:53 S 8 10 Cloudy OVC110 42 33     70% 37   29.77 29.78      
May 13 11:53 N 15 10 Mostly Clear FEW030 48 34     58% 42   29.88 29.89      
May 13 08:53 NNE 13 10 Clear CLR 40 37     89% 32   29.98 29.99      
May 13 01:12 N 3 10 Clear CLR 36 36     100% 33   30.14        
May 11 19:53 SSE 15 10 Mostly Cloudy BKN085 49 32     52% 43   29.94 29.95      
May 11 16:53 S 17 10 Mostly Cloudy FEW050 SCT080 BKN095 51 31     46%     29.9 29.9      
May 11 14:53 SW 10 10 Cloudy BKN050 OVC070 46 38     73% 41   29.87 29.88 0    
Jun 11 10:53 SE 8 10 Cloudy OVC080 53 40     61%     29.79 29.8      
Jun 11 09:53 W 5 10 Cloudy OVC080 51 43     74%     29.79 29.79      
Jun 10 08:53 Calm 3 Fog/Mist SCT002 49 49     100%     29.78 29.79      
Notice The following observation data may not be complete
Jun 09 13:21   10 Light Rain FEW004 OVC095          %         0    
Jun 06 09:53 NNE 15 10 Clear CLR 52 44     74%     29.8 29.8      
Jun 05 17:53 N 18 10 Clear CLR 55 45     69%     29.78 29.78      
Jun 05 12:53 Calm 10 Light Rain OVC055 47 44     90%     29.82 29.83 0 0